Location: Dunn (historical)
(35.2693°N, 90.5721°W)
Time: 02:28:53
(UTC+00:00)

BREEZE-M DEB (TANK) - Pass Details

Date: 13 February 2026
Orbit: 306 x 16065 km, 49.4° (Epoch: 6 March)

Event Time Altitude Azimuth Distance (km) Brightness Sun altitude
Exits shadow 12:17:49 -1° 226° (SW) 2,097 5.5 -7.3°
Rises 12:18:00 0° 226° (SW) 2,003 5.4 -7.3°
Reaches altitude 10° 12:19:26 10° 223° (SW) 1,262 4.4 -7.0°
Maximum altitude 12:21:43 73° 138° (SE) 474 2.7 -6.6°
Drops below altitude 10° 12:26:43 10° 54° (NE) 2,719 7.0 -5.6°
Sets 12:31:24 0° 53° (NE) 4,983 8.3 -4.6°
